Volver al catálogo

STARLINK-30440

ActivoComunicacionesVLEO
NORAD 57923·PAYLOAD·🇺🇸 United States

Lanzado Sep 24, 2023 desde Cape Canaveral Space Force Station

Loading…

Próximos Pases (próximas 24 horas)

TLE

ActualizadoSource: CelesTrak SupGP

Época: Sep 14, 2026, 21:31 UTC

1 57923C 23147L   26257.89701389 -.00027041  00000+0 -97939-3 0  2572
2 57923  43.0023 337.0524 0001505 268.5170 329.0546 15.27593222    12

Sigue STARLINK-30440 en tiempo real con AllMySat

Download on the App Store